SCP
0 0 0 0 0 0 0 0 0 0 0 0 0 0 0 0 0 0 0 0 0 0 0 0 0 0 0 0 0 0 0 0 0 0 0 0 0 0 0 0 0 0 0
0 0 0 0 0 0 0 0 0 0 0 0 0 0 0 0 0 0 0 0 0 0 0 0 0 0 0 0 0 0 0 0 0 0 0 0 0 0 0 0 0 0 0
0 0 0 0 0 0 0 0 0 0 0 0 0 0 0 0 0 0 0 0 0 0 0 0 0 0 0 0 0 0 0 0 0 0 0 0 0 0 0 0 0 0 0
0 0 0 0 0 0 0 0 0 0 0 0 0 0 0 0 0 0 0 0 0 0 0 0 0 0 0 0 0 0 0 0 0 0 0 0 0 0 0 0 0 0 0
0 0 0 0 0 0 0 0 0 0 0 0 0 0 0 0 0 0 0 0 0 0 0 0 0 0 0 0 0 0 0 0 0 0 0 0 0 0 0 0 0 0 0
0 0 0 0 0 0 0 0 0 0 0 0 0 0 0 0 0 0 0 0 0 0 0 0 0 0 0 0 0 0 0 0 0 0 0 0 0 0 0 0 0 0 0
0 0 0 0 0 0 0 0 0 0 0 0 0 0 0 0 0 0 0 0 0 0 0 0 0 0 0 0 0 0 0 0 0 0 0 0 0 0 0 0 0 0 0
0 0 0 0 0 0 0 0 0 0 0 0 0 0 0 0 0 0 0 0 0 0 0 0 0 0 0 0 0 0 0 0 -0 0 0 0 0 0 0 1 1 1 1
0 0 0 0 0 0 0 0 0 0 0 0 0 0 0 0 0 0 0 0 0 0 0 0 0 0 0 0 0 0 0 0 0 0 0 0 0 0 0 0 1 1 1
0 0 0 0 0 0 0 0 0 0 0 0 0 0 0 0 0 0 0 0 0 0 0 0 0 0 0 0 0 0 0 0 0 0 0 0 0 0 0 0 0 0 0
0 0 0 0 0 0 0 0 0 0 0 0 0 0 0 0 0 0 0 0 0 0 0 0 0 0 0 -0 0 0 0 0 0 0 0 0 0 0 0 0 0 0 0
0 0 0 0 0 0 0 0 0 0 0 0 0 0 0 0 0 0 0 0 0 0 0 0 0 -0 -0 0 0 0 0 0 0 0 0 0 0 0 0 0 0 0 0
0 0 0 0 0 0 0 0 0 0 0 0 0 0 0 0 0 0 0 0 0 0 0 0 0 0 0 0 0 0 0 0 0 0 0 0 0 0 0 0 0 0 0
0 0 0 0 0 0 0 0 0 0 0 0 0 0 0 0 0 0 0 0 0 0 0 0 0 0 0 0 0 0 0 0 0 0 0 0 0 0 0 0 0 0 0
0 0 0 0 0 0 0 0 0 0 0 0 0 0 0 0 0 0 0 0 0 0 0 0 0 0 0 0 0 0 0 0 0 0 0 0 0 0 0 0 0 0 0
0 0 0 0 0 0 0 0 0 0 0 0 0 0 0 0 0 0 0 0 0 0 0 0 0 0 0 0 0 0 0 0 0 0 0 0 0 0 0 0 0 0 0
0 0 0 0 0 0 0 0 0 0 0 0 0 0 0 0 0 0 0 0 0 0 0 0 0 0 0 0 0 0 0 0 0 0 0 0 0 0 0 0 0 0 0
0 0 0 0 0 0 0 0 0 0 0 0 0 0 0 0 0 0 0 0 0 0 0 0 0 0 0 0 0 0 0 0 0 0 0 0 0 0 0 0 0 0 0
0 0 0 0 0 0 0 0 0 0 0 0 0 0 0 0 0 0 0 0 0 0 0 0 0 0 0 0 0 0 0 0 0 0 0 0 0 0 0 0 0 0 0
0 0 0 0 0 0 0 -0 0 0 0 0 0 0 0 0 0 0 0 0 0 0 0 0 0 0 0 0 -0 0 0 0 0 0 0 0 0 0 0 0 0 0 0
0 0 0 0 0 0 0 0 0 0 0 0 0 0 0 0 0 0 0 0 0 0 0 0 0 0 0 0 -0 0 0 0 0 -0 0 0 0 0 0 0 0 0 0
0 0 0 0 0 0 0 0 0 0 0 0 0 0 0 0 0 0 0 0 0 0 0 0 0 0 0 0 0 -0 0 0 0 0 0 0 0 0 0 0 0 0 0
0 0 0 0 0 0 0 0 0 0 0 0 0 0 0 0 0 0 0 0 0 0 0 0 0 0 0 0 0 0 0 0 0 0 0 0 0 0 0 0 0 0 0
0 0 0 0 0 0 0 0 0 0 0 0 0 0 0 0 0 0 0 0 0 0 0 0 0 0 0 0 0 0 0 0 0 0 0 0 0 0 0 0 0 0 0
0 0 0 0 0 0 0 0 0 0 0 0 0 0 0 0 0 0 0 0 0 0 0 0 0 0 0 0 0 0 0 0 0 0 0 0 0 0 0 0 0 0 0
0 0 0 0 0 0 0 0 0 0 0 0 0 0 0 0 0 0 0 0 0 0 0 0 0 0 0 0 0 0 0 0 0 0 0 0 0 0 0 0 0 0 0
Wind_Speed_500mb
9 8 4 3 2 0 1 3 5 6 9 12 15 17 17 18 18 17 20 24 26 26 25 22 19 17 16 17 17 18 17 17 15 14 15 18 17 18 18 18 17 10 25
11 9 6 5 5 5 5 5 6 7 9 14 18 17 17 16 17 21 25 30 32 32 28 24 25 25 17 18 23 23 20 22 24 21 19 13 14 20 19 18 17 19 26
12 10 4 5 7 7 6 6 8 11 16 16 17 17 16 13 16 21 27 30 28 25 22 19 18 21 22 19 19 23 26 28 26 28 25 13 15 25 22 22 20 18 20
9 10 6 5 7 8 6 6 9 17 21 19 14 13 15 15 18 23 26 26 22 20 22 23 21 16 16 17 19 19 22 27 30 27 22 21 23 28 23 23 21 20 21
8 8 3 5 5 6 5 6 12 19 24 21 15 12 13 15 19 23 25 24 21 21 22 21 16 16 15 15 16 17 17 17 22 22 15 26 27 28 31 27 23 19 26
1 3 6 7 7 7 6 8 12 21 25 24 16 11 12 15 20 24 26 24 22 17 19 21 20 18 18 16 16 17 16 14 9 9 21 23 30 35 37 32 30 26 26
3 6 8 6 7 6 7 7 15 22 28 26 16 7 11 14 19 21 20 23 23 25 24 26 27 26 22 18 14 14 13 9 6 14 16 17 18 34 32 36 34 32 30
0 2 7 11 6 8 7 9 15 21 28 25 15 11 10 13 18 20 20 22 26 28 28 29 29 27 23 20 17 13 12 6 7 14 13 13 23 19 21 28 33 31 29
2 6 8 4 5 4 5 10 15 23 30 25 19 14 13 16 20 20 22 24 29 33 33 29 26 25 25 23 21 16 13 12 1 11 9 16 8 10 12 13 21 27 26
5 6 5 2 3 3 5 5 13 21 27 22 20 18 16 18 17 18 16 27 29 31 28 28 29 30 27 25 23 17 15 13 8 10 8 15 19 9 9 12 15 18 23
6 4 4 3 6 9 5 6 13 18 25 27 25 22 20 8 10 14 19 23 26 26 29 31 33 33 27 26 27 18 13 8 11 12 9 18 17 15 15 15 17 18 23
5 6 5 3 7 8 4 4 4 8 11 14 18 19 14 13 14 15 21 28 28 27 30 32 32 30 27 17 15 22 11 12 10 12 12 23 21 22 25 27 29 30 31
3 3 4 3 10 11 5 4 5 8 11 14 21 23 18 12 12 13 15 17 20 28 23 26 25 22 21 17 14 15 14 13 12 10 16 16 8 10 13 14 16 21 24
1 1 4 3 8 10 5 2 6 7 9 8 13 21 19 14 16 16 16 19 20 24 29 27 24 25 21 20 16 15 14 13 12 12 15 19 14 14 13 16 21 26 28
2 1 2 5 2 5 4 5 4 3 4 5 12 21 21 18 19 19 18 18 20 22 24 25 25 25 22 19 16 15 14 14 15 10 10 23 20 18 19 23 29 31 30
5 3 2 4 11 2 3 3 5 4 6 6 10 18 23 18 25 19 21 21 23 23 23 24 25 24 23 19 15 14 11 11 10 10 11 17 18 22 26 31 34 33 33
5 2 10 11 10 4 3 0 3 3 5 5 7 16 22 22 23 21 20 21 22 22 24 23 24 23 22 18 15 10 6 6 6 7 8 12 17 27 31 36 36 35 35
10 6 11 9 11 10 4 4 2 6 5 7 8 10 15 17 24 20 20 21 25 22 23 25 24 24 22 18 13 8 5 3 5 7 9 10 18 21 28 38 35 33 33
21 7 9 12 12 8 10 4 6 10 8 10 8 10 15 14 16 20 19 22 23 20 21 24 23 24 23 17 12 9 6 4 6 10 14 15 19 21 24 27 38 32 32
26 12 2 8 15 17 9 11 10 10 12 13 11 12 14 13 16 19 18 23 23 19 19 23 24 23 21 20 9 10 8 9 10 14 16 17 21 23 25 28 27 25 37
33 24 12 5 8 15 19 7 10 10 13 13 14 16 16 14 15 19 16 21 23 20 21 23 22 23 22 25 15 13 14 16 17 18 21 22 24 27 30 29 28 26 24
39 39 34 34 29 12 13 15 12 12 11 12 13 17 20 18 17 17 19 18 23 19 21 22 21 20 18 22 20 13 10 2 9 23 18 19 24 29 29 30 29 29 28
48 52 37 35 26 25 10 11 11 12 11 10 14 15 17 17 17 18 17 17 18 20 19 20 18 20 18 19 22 15 14 15 27 14 17 17 22 25 28 28 28 28 28
50 54 37 28 37 24 9 7 8 8 8 11 13 13 13 15 16 16 16 16 17 15 18 18 18 14 17 18 19 16 16 19 20 20 18 24 24 32 29 32 29 27 28
39 41 41 29 37 27 9 4 7 5 8 9 9 14 13 14 15 12 14 15 15 14 18 20 19 17 15 20 20 22 22 22 24 26 39 35 33 30 33 30 34 30 30
27 33 33 34 29 21 12 6 5 3 5 6 10 10 10 10 12 15 11 13 15 17 19 20 22 23 24 24 23 25 26 29 31 35 41 44 46 41 36 35 31 35 33
Wind_Direction_500mb
151 154 129 134 150 152 306 327 344 343 342 334 331 327 327 326 328 328 329 329 325 316 308 303 295 280 269 265 266 271 266 255 244 235 231 231 236 231 229 223 219 231 251
140 149 78 63 15 5 6 355 348 0 346 333 324 319 315 322 325 328 325 323 322 318 310 297 288 288 277 262 256 256 262 256 248 246 236 239 257 251 240 236 228 211 234
129 140 79 38 32 20 20 23 21 3 344 332 318 320 312 316 321 320 322 327 333 339 345 336 315 305 299 288 279 266 261 264 260 248 249 246 250 262 241 238 236 230 221
140 143 156 19 19 21 15 11 16 353 350 346 331 314 318 328 334 333 339 343 347 360 10 6 359 336 332 312 290 279 270 263 265 259 252 263 255 269 243 241 240 237 232
140 155 211 346 1 1 349 4 358 354 355 355 342 322 313 320 326 335 341 351 359 11 12 12 9 3 337 322 315 296 285 274 264 269 263 256 262 264 258 243 237 249 243
140 54 305 333 337 340 348 355 355 358 1 354 342 328 316 324 332 336 340 350 359 13 6 5 355 347 345 343 330 315 297 290 285 272 264 262 261 254 259 249 247 246 247
66 16 316 316 321 336 340 343 351 360 359 352 349 335 315 326 331 341 344 349 352 350 347 342 334 332 329 331 332 331 322 292 296 260 259 272 259 258 256 254 253 250 250
301 30 336 338 329 319 323 335 352 356 360 4 18 24 7 344 341 350 347 339 339 337 335 331 331 332 331 324 320 314 327 333 314 278 273 278 250 271 255 251 249 250 247
354 349 346 351 303 255 295 336 345 357 6 13 23 19 5 353 344 351 345 337 339 337 335 334 335 337 335 331 318 308 303 322 318 283 260 261 268 262 258 254 242 238 241
342 352 4 32 249 89 15 320 344 359 8 17 23 17 8 8 0 354 26 331 343 340 343 341 337 333 330 326 325 311 310 355 335 276 279 260 275 275 277 262 253 240 241
311 352 349 191 204 167 217 306 1 3 13 25 19 14 23 9 3 9 340 348 346 344 339 337 335 332 329 339 334 317 331 316 294 283 269 272 275 281 275 267 264 260 258
312 0 2 181 187 177 207 257 336 10 18 27 19 21 18 16 8 7 353 355 356 354 351 345 343 346 353 321 314 336 322 293 300 297 272 273 276 282 286 288 283 277 269
292 336 11 159 170 178 232 268 325 345 5 2 15 25 7 26 5 357 355 348 352 343 347 349 345 341 327 321 310 304 302 308 291 291 270 295 281 282 289 297 304 303 298
275 338 70 132 172 192 212 303 294 355 359 6 12 30 19 21 8 9 1 359 0 352 350 353 350 346 337 323 312 296 299 293 283 275 274 284 284 283 294 307 312 311 303
194 99 92 76 75 206 152 231 237 300 338 1 17 14 29 31 22 11 9 7 0 358 356 355 351 349 345 326 314 292 288 282 283 262 256 276 273 292 295 307 315 315 314
193 117 45 71 359 298 206 218 262 270 317 17 9 17 20 34 27 20 9 2 357 359 2 359 353 351 346 330 316 307 294 293 290 246 237 290 295 289 297 307 309 307 308
226 356 13 11 2 351 300 348 265 256 293 340 352 7 17 27 16 28 12 3 354 358 1 2 1 360 353 348 327 324 310 300 274 246 241 253 295 312 303 300 297 298 298
196 307 14 21 359 4 292 321 285 263 282 307 336 350 7 11 10 16 9 -0 359 358 360 5 3 6 2 1 353 358 345 332 283 273 270 266 276 287 302 306 302 297 291
231 251 16 12 22 353 322 277 285 279 298 290 308 317 323 351 357 8 357 357 6 359 357 7 8 7 6 360 354 359 345 304 292 279 280 293 299 301 297 298 304 300 295
203 208 350 6 6 359 326 317 290 297 284 278 284 289 311 328 335 352 347 352 9 356 356 2 6 8 3 354 335 304 296 290 290 293 292 306 300 309 310 302 302 304 298
209 204 195 274 325 342 333 277 313 292 274 281 284 288 297 307 319 330 341 344 355 348 357 358 360 356 2 359 354 326 288 284 280 278 295 296 299 307 304 306 306 293 293
209 210 221 237 222 175 274 306 291 290 284 274 273 284 299 303 311 317 321 330 334 351 350 354 355 1 355 355 2 338 342 275 346 307 282 294 299 307 308 300 291 292 288
210 217 227 242 211 216 254 313 318 310 313 312 304 306 292 302 300 300 305 307 331 359 342 348 343 349 350 354 356 9 346 351 333 327 309 313 305 313 311 309 295 289 287
213 221 225 239 220 218 227 322 327 244 271 279 297 286 286 294 295 296 293 296 311 329 333 340 327 333 341 344 345 335 321 309 323 315 313 309 315 314 309 314 301 294 286
210 216 213 213 217 221 205 294 319 299 290 298 302 300 306 292 306 299 290 293 300 321 306 315 321 315 322 317 324 320 313 309 299 294 305 311 309 307 306 303 301 294 285
194 192 201 202 227 215 217 233 320 326 340 305 306 316 323 300 311 300 299 297 303 297 307 306 301 303 300 295 296 298 300 297 297 297 297 302 306 308 300 302 295 292 284
Wind_Speed_850mb
9 8 4 3 2 0 1 3 5 6 9 12 15 17 17 18 18 17 20 24 26 26 25 22 19 17 16 17 17 18 17 17 15 14 15 18 17 18 18 18 17 10 25
11 9 6 5 5 5 5 5 6 7 9 14 18 17 17 16 17 21 25 30 32 32 28 24 25 25 17 18 23 23 20 22 24 21 19 13 14 20 19 18 17 19 26
12 10 4 5 7 7 6 6 8 11 16 16 17 17 16 13 16 21 27 30 28 25 22 19 18 21 22 19 19 23 26 28 26 28 25 13 15 25 22 22 20 18 20
9 10 6 5 7 8 6 6 9 17 21 19 14 13 15 15 18 23 26 26 22 20 22 23 21 16 16 17 19 19 22 27 30 27 22 21 23 28 23 23 21 20 21
8 8 3 5 5 6 5 6 12 19 24 21 15 12 13 15 19 23 25 24 21 21 22 21 16 16 15 15 16 17 17 17 22 22 15 26 27 28 31 27 23 19 26
1 3 6 7 7 7 6 8 12 21 25 24 16 11 12 15 20 24 26 24 22 17 19 21 20 18 18 16 16 17 16 14 9 9 21 23 30 35 37 32 30 26 26
3 6 8 6 7 6 7 7 15 22 28 26 16 7 11 14 19 21 20 23 23 25 24 26 27 26 22 18 14 14 13 9 6 14 16 17 18 34 32 36 34 32 30
0 2 7 11 6 8 7 9 15 21 28 25 15 11 10 13 18 20 20 22 26 28 28 29 29 27 23 20 17 13 12 6 7 14 13 13 23 19 21 28 33 31 29
2 6 8 4 5 4 5 10 15 23 30 25 19 14 13 16 20 20 22 24 29 33 33 29 26 25 25 23 21 16 13 12 1 11 9 16 8 10 12 13 21 27 26
5 6 5 2 3 3 5 5 13 21 27 22 20 18 16 18 17 18 16 27 29 31 28 28 29 30 27 25 23 17 15 13 8 10 8 15 19 9 9 12 15 18 23
6 4 4 3 6 9 5 6 13 18 25 27 25 22 20 8 10 14 19 23 26 26 29 31 33 33 27 26 27 18 13 8 11 12 9 18 17 15 15 15 17 18 23
5 6 5 3 7 8 4 4 4 8 11 14 18 19 14 13 14 15 21 28 28 27 30 32 32 30 27 17 15 22 11 12 10 12 12 23 21 22 25 27 29 30 31
3 3 4 3 10 11 5 4 5 8 11 14 21 23 18 12 12 13 15 17 20 28 23 26 25 22 21 17 14 15 14 13 12 10 16 16 8 10 13 14 16 21 24
1 1 4 3 8 10 5 2 6 7 9 8 13 21 19 14 16 16 16 19 20 24 29 27 24 25 21 20 16 15 14 13 12 12 15 19 14 14 13 16 21 26 28
2 1 2 5 2 5 4 5 4 3 4 5 12 21 21 18 19 19 18 18 20 22 24 25 25 25 22 19 16 15 14 14 15 10 10 23 20 18 19 23 29 31 30
5 3 2 4 11 2 3 3 5 4 6 6 10 18 23 18 25 19 21 21 23 23 23 24 25 24 23 19 15 14 11 11 10 10 11 17 18 22 26 31 34 33 33
5 2 10 11 10 4 3 0 3 3 5 5 7 16 22 22 23 21 20 21 22 22 24 23 24 23 22 18 15 10 6 6 6 7 8 12 17 27 31 36 36 35 35
10 6 11 9 11 10 4 4 2 6 5 7 8 10 15 17 24 20 20 21 25 22 23 25 24 24 22 18 13 8 5 3 5 7 9 10 18 21 28 38 35 33 33
21 7 9 12 12 8 10 4 6 10 8 10 8 10 15 14 16 20 19 22 23 20 21 24 23 24 23 17 12 9 6 4 6 10 14 15 19 21 24 27 38 32 32
26 12 2 8 15 17 9 11 10 10 12 13 11 12 14 13 16 19 18 23 23 19 19 23 24 23 21 20 9 10 8 9 10 14 16 17 21 23 25 28 27 25 37
33 24 12 5 8 15 19 7 10 10 13 13 14 16 16 14 15 19 16 21 23 20 21 23 22 23 22 25 15 13 14 16 17 18 21 22 24 27 30 29 28 26 24
39 39 34 34 29 12 13 15 12 12 11 12 13 17 20 18 17 17 19 18 23 19 21 22 21 20 18 22 20 13 10 2 9 23 18 19 24 29 29 30 29 29 28
48 52 37 35 26 25 10 11 11 12 11 10 14 15 17 17 17 18 17 17 18 20 19 20 18 20 18 19 22 15 14 15 27 14 17 17 22 25 28 28 28 28 28
50 54 37 28 37 24 9 7 8 8 8 11 13 13 13 15 16 16 16 16 17 15 18 18 18 14 17 18 19 16 16 19 20 20 18 24 24 32 29 32 29 27 28
39 41 41 29 37 27 9 4 7 5 8 9 9 14 13 14 15 12 14 15 15 14 18 20 19 17 15 20 20 22 22 22 24 26 39 35 33 30 33 30 34 30 30
27 33 33 34 29 21 12 6 5 3 5 6 10 10 10 10 12 15 11 13 15 17 19 20 22 23 24 24 23 25 26 29 31 35 41 44 46 41 36 35 31 35 33
Wind_Direction_850mb
151 154 129 134 150 152 306 327 344 343 342 334 331 327 327 326 328 328 329 329 325 316 308 303 295 280 269 265 266 271 266 255 244 235 231 231 236 231 229 223 219 231 251
140 149 78 63 15 5 6 355 348 0 346 333 324 319 315 322 325 328 325 323 322 318 310 297 288 288 277 262 256 256 262 256 248 246 236 239 257 251 240 236 228 211 234
129 140 79 38 32 20 20 23 21 3 344 332 318 320 312 316 321 320 322 327 333 339 345 336 315 305 299 288 279 266 261 264 260 248 249 246 250 262 241 238 236 230 221
140 143 156 19 19 21 15 11 16 353 350 346 331 314 318 328 334 333 339 343 347 360 10 6 359 336 332 312 290 279 270 263 265 259 252 263 255 269 243 241 240 237 232
140 155 211 346 1 1 349 4 358 354 355 355 342 322 313 320 326 335 341 351 359 11 12 12 9 3 337 322 315 296 285 274 264 269 263 256 262 264 258 243 237 249 243
140 54 305 333 337 340 348 355 355 358 1 354 342 328 316 324 332 336 340 350 359 13 6 5 355 347 345 343 330 315 297 290 285 272 264 262 261 254 259 249 247 246 247
66 16 316 316 321 336 340 343 351 360 359 352 349 335 315 326 331 341 344 349 352 350 347 342 334 332 329 331 332 331 322 292 296 260 259 272 259 258 256 254 253 250 250
301 30 336 338 329 319 323 335 352 356 360 4 18 24 7 344 341 350 347 339 339 337 335 331 331 332 331 324 320 314 327 333 314 278 273 278 250 271 255 251 249 250 247
354 349 346 351 303 255 295 336 345 357 6 13 23 19 5 353 344 351 345 337 339 337 335 334 335 337 335 331 318 308 303 322 318 283 260 261 268 262 258 254 242 238 241
342 352 4 32 249 89 15 320 344 359 8 17 23 17 8 8 0 354 26 331 343 340 343 341 337 333 330 326 325 311 310 355 335 276 279 260 275 275 277 262 253 240 241
311 352 349 191 204 167 217 306 1 3 13 25 19 14 23 9 3 9 340 348 346 344 339 337 335 332 329 339 334 317 331 316 294 283 269 272 275 281 275 267 264 260 258
312 0 2 181 187 177 207 257 336 10 18 27 19 21 18 16 8 7 353 355 356 354 351 345 343 346 353 321 314 336 322 293 300 297 272 273 276 282 286 288 283 277 269
292 336 11 159 170 178 232 268 325 345 5 2 15 25 7 26 5 357 355 348 352 343 347 349 345 341 327 321 310 304 302 308 291 291 270 295 281 282 289 297 304 303 298
275 338 70 132 172 192 212 303 294 355 359 6 12 30 19 21 8 9 1 359 0 352 350 353 350 346 337 323 312 296 299 293 283 275 274 284 284 283 294 307 312 311 303
194 99 92 76 75 206 152 231 237 300 338 1 17 14 29 31 22 11 9 7 0 358 356 355 351 349 345 326 314 292 288 282 283 262 256 276 273 292 295 307 315 315 314
193 117 45 71 359 298 206 218 262 270 317 17 9 17 20 34 27 20 9 2 357 359 2 359 353 351 346 330 316 307 294 293 290 246 237 290 295 289 297 307 309 307 308
226 356 13 11 2 351 300 348 265 256 293 340 352 7 17 27 16 28 12 3 354 358 1 2 1 360 353 348 327 324 310 300 274 246 241 253 295 312 303 300 297 298 298
196 307 14 21 359 4 292 321 285 263 282 307 336 350 7 11 10 16 9 -0 359 358 360 5 3 6 2 1 353 358 345 332 283 273 270 266 276 287 302 306 302 297 291
231 251 16 12 22 353 322 277 285 279 298 290 308 317 323 351 357 8 357 357 6 359 357 7 8 7 6 360 354 359 345 304 292 279 280 293 299 301 297 298 304 300 295
203 208 350 6 6 359 326 317 290 297 284 278 284 289 311 328 335 352 347 352 9 356 356 2 6 8 3 354 335 304 296 290 290 293 292 306 300 309 310 302 302 304 298
209 204 195 274 325 342 333 277 313 292 274 281 284 288 297 307 319 330 341 344 355 348 357 358 360 356 2 359 354 326 288 284 280 278 295 296 299 307 304 306 306 293 293
209 210 221 237 222 175 274 306 291 290 284 274 273 284 299 303 311 317 321 330 334 351 350 354 355 1 355 355 2 338 342 275 346 307 282 294 299 307 308 300 291 292 288
210 217 227 242 211 216 254 313 318 310 313 312 304 306 292 302 300 300 305 307 331 359 342 348 343 349 350 354 356 9 346 351 333 327 309 313 305 313 311 309 295 289 287
213 221 225 239 220 218 227 322 327 244 271 279 297 286 286 294 295 296 293 296 311 329 333 340 327 333 341 344 345 335 321 309 323 315 313 309 315 314 309 314 301 294 286
210 216 213 213 217 221 205 294 319 299 290 298 302 300 306 292 306 299 290 293 300 321 306 315 321 315 322 317 324 320 313 309 299 294 305 311 309 307 306 303 301 294 285
194 192 201 202 227 215 217 233 320 326 340 305 306 316 323 300 311 300 299 297 303 297 307 306 301 303 300 295 296 298 300 297 297 297 297 302 306 308 300 302 295 292 284